Fort Payne, AL

6:04 PM CDT on July 24, 2016 (GMT -0500)
Fort Payne

Weather History for K4A9 - February, 2013

Change the Weather History Date:

Monday, February 25, 2013

  Actual Average (KRMG) Record (KRMG)
Temperature  
Mean Temperature 45 °F 47 °F  
Max Temperature 53 °F 59 °F 71 °F (1998)
Min Temperature 37 °F 35 °F 25 °F (2015)
Degree Days  
Heating Degree Days 20 18  
Month to date heating degree days 526  
Since 1 July heating degree days 2568  
Moisture  
Dew Point 30 °F    
Average Humidity 55    
Maximum Humidity 87    
Minimum Humidity 40    
Precipitation  
Precipitation 0.23 in 0.19 in 0.93 in (2001)
Month to date precipitation 4.26  
Year to date precipitation 9.08  
Sea Level Pressure  
Sea Level Pressure 29.87 in    
Wind  
Wind Speed 7 mph (East)    
Max Wind Speed 16 mph    
Max Gust Speed 28 mph    
Visibility 10 miles    
Events Rain    
T = Trace of Precipitation, MM = Missing Value Source: NWS Daily Summary

Daily Weather History Graph

Daily Weather History Graph

Search for Another Location

Airport or City:

Trip Planner

Search our weather history database for the weather conditions in past years. The results will help you decide how hot, cold, wet, or windy it might be!

Date:

Astronomy

Feb. 25, 2013 Rise Set
Actual Time 6:16 AM CST 5:35 PM CST
Civil Twilight 5:51 AM CST 6:01 PM CST
Nautical Twilight 5:22 AM CST 6:30 PM CST
Astronomical Twilight 4:52 AM CST 6:59 PM CST
Moon 5:45 PM CST (2/25) 5:48 AM CST (2/25)
Length of Visible Light 12h 09m
Length of Day
11h 19m
Full, 100% of the Moon is Illuminated
Feb 25
Full
Feb 25
Full
Mar 4
Last Quarter
Mar 11
New
Mar 19
First Quarter

Hourly Weather History & Observations

Time (CST) Temp. Windchill Dew Point Humidity Pressure Visibility Wind Dir Wind Speed Gust Speed Precip Events Conditions
12:15 AM 37.4 °F 34.9 °F 32.0 °F 81% 29.97 in 10.0 mi NE 3.5 mph - N/A   Clear
12:35 AM 37.4 °F 32.1 °F 32.0 °F 81% 29.96 in 10.0 mi NE 6.9 mph - N/A   Clear
12:55 AM 41.0 °F 36.4 °F 30.2 °F 65% 29.96 in 10.0 mi NE 6.9 mph - N/A   Clear
1:15 AM 41.0 °F 38.0 °F 30.2 °F 65% 29.96 in 10.0 mi NNE 4.6 mph - N/A   Clear
1:35 AM 41.0 °F 37.1 °F 28.4 °F 61% 29.95 in 10.0 mi NE 5.8 mph - N/A   Clear
1:55 AM 41.0 °F 39.0 °F 28.4 °F 61% 29.95 in 10.0 mi NE 3.5 mph - N/A   Clear
2:15 AM 41.0 °F 38.0 °F 28.4 °F 61% 29.95 in 10.0 mi NE 4.6 mph - N/A   Clear
2:35 AM 41.0 °F 36.4 °F 26.6 °F 57% 29.95 in 10.0 mi NE 6.9 mph - N/A   Clear
2:55 AM 42.8 °F 39.3 °F 26.6 °F 53% 29.94 in 10.0 mi NE 5.8 mph - N/A   Clear
3:15 AM 42.8 °F 39.3 °F 26.6 °F 53% 29.93 in 10.0 mi NE 5.8 mph - N/A   Clear
3:35 AM 42.8 °F 38.6 °F 26.6 °F 53% 29.93 in 10.0 mi NE 6.9 mph - N/A   Clear
3:55 AM 42.8 °F 39.3 °F 26.6 °F 53% 29.93 in 10.0 mi NE 5.8 mph - N/A   Clear
4:15 AM 42.8 °F 39.3 °F 26.6 °F 53% 29.92 in 10.0 mi NE 5.8 mph - N/A   Clear
4:35 AM 42.8 °F 40.1 °F 24.8 °F 49% 29.92 in 10.0 mi NE 4.6 mph - N/A   Clear
4:55 AM 42.8 °F 38.0 °F 26.6 °F 53% 29.92 in 10.0 mi NE 8.1 mph - N/A   Clear
5:15 AM 41.0 °F 36.4 °F 26.6 °F 57% 29.93 in 10.0 mi NE 6.9 mph - N/A   Clear
5:35 AM 41.0 °F 36.4 °F 24.8 °F 53% 29.93 in 10.0 mi NE 6.9 mph - N/A   Clear
6:15 AM 42.8 °F 40.1 °F 24.8 °F 49% 29.96 in 10.0 mi NNE 4.6 mph - N/A   Clear
6:35 AM 42.8 °F 39.3 °F 26.6 °F 53% 29.96 in 10.0 mi NNE 5.8 mph - N/A   Clear
6:55 AM 42.8 °F 39.3 °F 26.6 °F 53% 29.96 in 10.0 mi NE 5.8 mph - N/A   Clear
7:15 AM 44.6 °F 39.7 °F 23.0 °F 43% 29.96 in 10.0 mi NE 9.2 mph - N/A   Clear
7:35 AM 44.6 °F 40.7 °F 24.8 °F 46% 29.97 in 10.0 mi NE 6.9 mph - N/A   Clear
7:55 AM 44.6 °F 40.2 °F 24.8 °F 46% 29.97 in 10.0 mi NE 8.1 mph - N/A   Clear
8:15 AM 46.4 °F 42.4 °F 24.8 °F 43% 29.98 in 10.0 mi NNE 8.1 mph - N/A   Clear
8:35 AM 46.4 °F 41.1 °F 24.8 °F 43% 29.96 in 10.0 mi North 11.5 mph 18.4 mph N/A   Clear
8:55 AM 46.4 °F 42.9 °F 26.6 °F 46% 29.96 in 10.0 mi NE 6.9 mph - N/A   Clear
9:15 AM 46.4 °F 42.9 °F 26.6 °F 46% 29.96 in 10.0 mi East 6.9 mph - N/A   Clear
9:35 AM 46.4 °F 45.2 °F 26.6 °F 46% 29.94 in 10.0 mi ENE 3.5 mph - N/A   Clear
9:55 AM 48.2 °F - 26.6 °F 43% 29.94 in 10.0 mi East 3.5 mph - N/A   Scattered Clouds
10:15 AM 48.2 °F - 24.8 °F 40% 29.94 in 10.0 mi SSW 3.5 mph 21.9 mph N/A   Mostly Cloudy
10:35 AM 48.2 °F - 26.6 °F 43% 29.93 in 10.0 mi East 15.0 mph 18.4 mph N/A   Overcast
10:55 AM 50.0 °F - 26.6 °F 40% 29.94 in 10.0 mi ESE 6.9 mph 18.4 mph N/A   Overcast
11:15 AM 48.2 °F - 26.6 °F 43% 29.93 in 10.0 mi East 8.1 mph - N/A   Overcast
11:35 AM 50.0 °F - 26.6 °F 40% 29.93 in 10.0 mi East 3.5 mph - N/A   Overcast
11:55 AM 50.0 °F - 28.4 °F 43% 29.92 in 10.0 mi East 4.6 mph - N/A   Overcast
12:15 PM 51.8 °F - 28.4 °F 41% 29.91 in 10.0 mi East 6.9 mph 18.4 mph N/A   Overcast
12:35 PM 51.8 °F - 28.4 °F 41% 29.90 in 10.0 mi ESE 8.1 mph 18.4 mph N/A   Overcast
12:55 PM 51.8 °F - 28.4 °F 41% 29.90 in 10.0 mi East 8.1 mph 19.6 mph N/A   Overcast
1:15 PM 51.8 °F - 28.4 °F 41% 29.89 in 10.0 mi East 13.8 mph 20.7 mph N/A   Overcast
1:35 PM 51.8 °F - 28.4 °F 41% 29.88 in 10.0 mi East 10.4 mph 16.1 mph N/A   Overcast
1:55 PM 51.8 °F - 28.4 °F 41% 29.88 in 10.0 mi East 5.8 mph 20.7 mph N/A   Overcast
2:15 PM 53.6 °F - 30.2 °F 41% 29.86 in 10.0 mi East 11.5 mph 16.1 mph N/A   Overcast
2:35 PM 51.8 °F - 32.0 °F 47% 29.86 in 10.0 mi East 6.9 mph - N/A   Overcast
2:55 PM 53.6 °F - 32.0 °F 44% 29.83 in 10.0 mi East 13.8 mph 19.6 mph N/A   Overcast
3:15 PM 53.6 °F - 32.0 °F 44% 29.82 in 10.0 mi East 10.4 mph 18.4 mph N/A   Overcast
3:35 PM 53.6 °F - 32.0 °F 44% 29.82 in 10.0 mi East 4.6 mph 18.4 mph N/A   Overcast
3:55 PM 51.8 °F - 32.0 °F 47% 29.82 in 10.0 mi East 11.5 mph 19.6 mph N/A   Overcast
4:15 PM 51.8 °F - 32.0 °F 47% 29.81 in 10.0 mi East 8.1 mph - N/A   Overcast
4:55 PM 51.8 °F - 33.8 °F 50% 29.80 in 10.0 mi ESE 8.1 mph 17.3 mph N/A   Overcast
5:15 PM 51.8 °F - 33.8 °F 50% 29.78 in 10.0 mi East 6.9 mph - N/A   Overcast
5:35 PM 51.8 °F - 33.8 °F 50% 29.79 in 10.0 mi East 10.4 mph 19.6 mph N/A   Overcast
5:55 PM 50.0 °F - 35.6 °F 58% 29.82 in 10.0 mi ESE 9.2 mph 18.4 mph N/A   Overcast
6:15 PM 50.0 °F - 33.8 °F 54% 29.82 in 10.0 mi ESE 8.1 mph 23.0 mph N/A   Overcast
6:35 PM 50.0 °F - 33.8 °F 54% 29.80 in 10.0 mi ESE 12.7 mph 20.7 mph N/A   Overcast
6:55 PM 50.0 °F - 33.8 °F 54% 29.80 in 10.0 mi East 12.7 mph 19.6 mph N/A   Overcast
7:15 PM 50.0 °F - 33.8 °F 54% 29.80 in 10.0 mi ESE 5.8 mph 16.1 mph N/A   Overcast
7:35 PM 48.2 °F - 35.6 °F 62% 29.80 in 10.0 mi East 8.1 mph 23.0 mph N/A   Overcast
7:55 PM 48.2 °F - 35.6 °F 62% 29.79 in 10.0 mi ESE 9.2 mph 24.2 mph N/A   Overcast
8:15 PM 46.4 °F 45.2 °F 35.6 °F 66% 29.78 in 10.0 mi ESE 3.5 mph 16.1 mph N/A   Overcast
8:35 PM 46.4 °F 41.5 °F 37.4 °F 71% 29.77 in 10.0 mi East 10.4 mph 21.9 mph N/A   Overcast
8:55 PM 46.4 °F 41.1 °F 37.4 °F 71% 29.75 in 10.0 mi East 11.5 mph 21.9 mph N/A   Overcast
9:15 PM 46.4 °F 41.5 °F 37.4 °F 71% 29.76 in 10.0 mi ESE 10.4 mph 24.2 mph N/A   Overcast
9:35 PM 46.4 °F 41.9 °F 37.4 °F 71% 29.75 in 10.0 mi East 9.2 mph - N/A   Overcast
9:55 PM 44.6 °F 39.2 °F 37.4 °F 76% 29.76 in 10.0 mi East 10.4 mph 16.1 mph N/A   Overcast
10:15 PM 44.6 °F 39.2 °F 39.2 °F 81% 29.73 in 7.0 mi East 10.4 mph 17.3 mph N/A Rain Rain
10:35 PM 44.6 °F 37.8 °F 39.2 °F 81% 29.73 in 7.0 mi ESE 15.0 mph 27.6 mph 0.04 in Rain Rain
10:55 PM 44.6 °F 40.2 °F 39.2 °F 81% 29.73 in 5.0 mi East 8.1 mph 18.4 mph 0.07 in Rain Rain
11:15 PM 42.8 °F 36.6 °F 39.2 °F 87% 29.72 in 3.0 mi ESE 11.5 mph 20.7 mph 0.08 in   Overcast
11:35 PM 42.8 °F 35.8 °F 39.2 °F 87% 29.71 in 3.0 mi ESE 13.8 mph 25.3 mph 0.15 in   Unknown
11:55 PM 42.8 °F 35.1 °F 39.2 °F 87% 29.69 in 10.0 mi ESE 16.1 mph 25.3 mph 0.16 in Rain Rain